Weather History for Faribault, MN

Change the Weather History Date:

Tuesday, July 31, 2012

  Actual Average Record
Temperature  
Mean Temperature 71 °F -  
Max Temperature 82 °F 81 °F 98 °F (1955)
Min Temperature 60 °F 58 °F 45 °F (1971)
Cooling Degree Days 6    
Growing Degree Days 21 (Base 50)    
Moisture  
Dew Point 62 °F    
Average Humidity 74    
Maximum Humidity 94    
Minimum Humidity 48    
Precipitation  
Precipitation 0.00 in - - ()
Sea Level Pressure  
Sea Level Pressure 30.00 in    
Wind  
Wind Speed 0 mph (NNW)    
Max Wind Speed 5 mph    
Max Gust Speed -    
Visibility 8 miles    
Events Fog    
Averages and records for this station are not official NWS values.
T = Trace of Precipitation, MM = Missing Value Source: NWS Daily Summary

Daily Weather History Graph

Daily Weather History Graph

Search for Another Location

Airport:

Trip Planner

Search our weather history database for the weather conditions in past years. The results will help you decide how hot, cold, wet, or windy it might be!

Date:

Astronomy

Jul. 31, 2012 Rise Set
Actual Time 5:59 AM CDT 8:38 PM CDT
Civil Twilight 5:26 AM CDT 9:11 PM CDT
Nautical Twilight 4:44 AM CDT 9:53 PM CDT
Astronomical Twilight 3:56 AM CDT 10:40 PM CDT
Moon 7:27 PM CDT (7/31) 4:20 AM CDT (7/31)
Length of Visible Light 15h 45m
Length of Day
14h 38m
Waxing Gibbous, 97% of the Moon is Illuminated
Jul 31
Waxing Gibbous
Aug 1
Full
Aug 9
Last Quarter
Aug 17
New
Aug 24
First Quarter

Hourly Weather History & Observations

Time (CDT) Temp. Heat Index Dew Point Humidity Pressure Visibility Wind Dir Wind Speed Gust Speed Precip Events Conditions
12:14 AM 68.0 °F - 62.6 °F 83% 29.97 in 10.0 mi Calm Calm - N/A   Clear
12:34 AM 64.4 °F - 60.8 °F 88% 29.97 in 10.0 mi Calm Calm - N/A   Clear
12:54 AM 64.4 °F - 62.6 °F 94% 29.97 in 10.0 mi Calm Calm - N/A   Clear
1:14 AM 66.2 °F - 62.6 °F 88% 29.97 in 10.0 mi Calm Calm - N/A   Clear
1:35 AM 64.4 °F - 60.8 °F 88% 29.97 in 10.0 mi Calm Calm - N/A   Clear
1:54 AM 64.4 °F - 62.6 °F 94% 29.98 in 10.0 mi Calm Calm - N/A   Clear
2:14 AM 64.4 °F - 60.8 °F 88% 29.98 in 10.0 mi Calm Calm - N/A   Clear
2:34 AM 62.6 °F - 60.8 °F 94% 29.98 in 10.0 mi Calm Calm - N/A   Clear
2:54 AM - - 60.8 °F N/A% 29.98 in 10.0 mi Calm Calm - N/A   Clear
3:14 AM 62.6 °F - 60.8 °F 94% 29.98 in 2.0 mi Calm Calm - N/A   Clear
3:34 AM 62.6 °F - 60.8 °F 94% 29.99 in 5.0 mi Calm Calm - N/A   Clear
3:54 AM 62.6 °F - 60.8 °F 94% 29.99 in 4.0 mi Calm Calm - N/A   Clear
4:15 AM 60.8 °F - 59.0 °F 94% 29.99 in 3.0 mi Calm Calm - N/A   Clear
4:33 AM 62.6 °F - 60.8 °F 94% 29.99 in 3.0 mi Calm Calm - N/A   Clear
4:54 AM 60.8 °F - 59.0 °F 94% 29.99 in 2.0 mi Calm Calm - N/A   Clear
5:14 AM 60.8 °F - 57.2 °F 88% 30.00 in 0.5 mi Calm Calm - N/A Fog Fog
5:34 AM 60.8 °F - 59.0 °F 94% 30.00 in 5.0 mi Calm Calm - N/A   Clear
5:54 AM 60.8 °F - 59.0 °F 94% 30.00 in 0.8 mi Calm Calm - N/A   Mist
6:14 AM 60.8 °F - 57.2 °F 88% 30.01 in 0.2 mi Calm Calm - N/A Fog Fog
6:34 AM 60.8 °F - 59.0 °F 94% 30.02 in 0.5 mi Calm Calm - N/A Fog Fog
6:54 AM 60.8 °F - 59.0 °F 94% 30.01 in 3.0 mi Calm Calm - N/A   Clear
7:14 AM - - - N/A% 30.01 in 7.0 mi Calm Calm - N/A   Clear
7:33 AM 64.4 °F - 62.6 °F 94% 30.01 in 10.0 mi Calm Calm - N/A   Clear
7:54 AM 68.0 °F - 64.4 °F 88% 30.01 in 10.0 mi NNE 4.6 mph - N/A   Clear
8:14 AM 69.8 °F - 64.4 °F 83% 30.01 in 10.0 mi Calm Calm - N/A   Clear
8:35 AM 71.6 °F - 64.4 °F 78% 30.02 in 10.0 mi Calm Calm - N/A   Clear
8:54 AM 71.6 °F - 64.4 °F 78% 30.03 in 10.0 mi Calm Calm - N/A   Clear
9:14 AM 73.4 °F - 64.4 °F 73% 30.03 in 10.0 mi Calm Calm - N/A   Clear
9:34 AM 73.4 °F - 64.4 °F 73% 30.02 in 10.0 mi Calm Calm - N/A   Clear
9:54 AM 75.2 °F - 64.4 °F 69% 30.02 in 10.0 mi NE 4.6 mph - N/A   Clear
10:14 AM 75.2 °F - 64.4 °F 69% 30.03 in 10.0 mi Calm Calm - N/A   Clear
10:34 AM 77.0 °F - 62.6 °F 61% 30.03 in 10.0 mi Calm Calm - N/A   Clear
10:54 AM 77.0 °F - 62.6 °F 61% 30.03 in 10.0 mi Calm Calm - N/A   Clear
11:14 AM 78.8 °F - 62.6 °F 57% 30.04 in 10.0 mi NNE 3.5 mph - N/A   Clear
11:34 AM 78.8 °F - 62.6 °F 57% 30.04 in 10.0 mi Calm Calm - N/A   Clear
11:54 AM 78.8 °F - 60.8 °F 54% 30.04 in 10.0 mi Calm Calm - N/A   Clear
12:14 PM 78.8 °F - 60.8 °F 54% 30.04 in 10.0 mi Calm Calm - N/A   Clear
12:34 PM 78.8 °F - 62.6 °F 57% 30.04 in 10.0 mi Calm Calm - N/A   Clear
12:54 PM 78.8 °F - 62.6 °F 57% 30.03 in 10.0 mi West 3.5 mph - N/A   Unknown
1:14 PM 80.6 °F 81.5 °F 60.8 °F 51% 30.03 in 10.0 mi Calm Calm - N/A   Unknown
1:34 PM 80.6 °F 81.5 °F 60.8 °F 51% 30.02 in 10.0 mi NNW 3.5 mph - N/A   Unknown
2:14 PM 80.6 °F 81.5 °F 60.8 °F 51% 30.01 in 10.0 mi Calm Calm - N/A   Unknown
2:34 PM 82.4 °F 82.9 °F 60.8 °F 48% 30.00 in 10.0 mi NW 3.5 mph - N/A   Unknown
2:54 PM 80.6 °F 81.5 °F 60.8 °F 51% 30.00 in 10.0 mi WNW 3.5 mph - N/A   Unknown
3:14 PM 82.4 °F 83.4 °F 62.6 °F 51% 30.00 in 10.0 mi Calm Calm - N/A   Unknown
3:34 PM 82.4 °F 82.9 °F 60.8 °F 48% 30.00 in 10.0 mi Calm Calm - N/A   Unknown
3:54 PM 82.4 °F 82.9 °F 60.8 °F 48% 30.00 in 10.0 mi Calm Calm - N/A   Unknown
4:14 PM 82.4 °F 82.9 °F 60.8 °F 48% 30.00 in 10.0 mi Calm Calm - N/A   Unknown
4:34 PM 82.4 °F 83.4 °F 62.6 °F 51% 30.00 in 10.0 mi Calm Calm - N/A   Unknown
4:54 PM 82.4 °F 83.4 °F 62.6 °F 51% 29.99 in 10.0 mi Calm Calm - N/A   Unknown
5:14 PM 82.4 °F 83.4 °F 62.6 °F 51% 29.99 in 10.0 mi Calm Calm - N/A   Unknown
5:34 PM 82.4 °F 83.4 °F 62.6 °F 51% 29.99 in 10.0 mi NNW 4.6 mph - N/A   Unknown
5:54 PM 82.4 °F 82.9 °F 60.8 °F 48% 29.99 in 10.0 mi North 3.5 mph - N/A   Unknown
6:14 PM 80.6 °F 81.8 °F 62.6 °F 54% 29.99 in 10.0 mi Calm Calm - N/A   Unknown
6:34 PM 78.8 °F - 62.6 °F 57% 29.98 in 10.0 mi Calm Calm - N/A   Unknown
6:54 PM 78.8 °F - 66.2 °F 65% 29.98 in 10.0 mi Calm Calm - N/A   Clear
7:14 PM 78.8 °F - 66.2 °F 65% 29.98 in 10.0 mi Calm Calm - N/A   Clear
7:34 PM 78.8 °F - 66.2 °F 65% 29.97 in 10.0 mi Calm Calm - N/A   Clear
7:54 PM 78.8 °F - 69.8 °F 74% 29.97 in 10.0 mi Calm Calm - N/A   Clear
8:13 PM 75.2 °F - 66.2 °F 73% 29.97 in 10.0 mi Calm Calm - N/A   Clear
8:34 PM 73.4 °F - 66.2 °F 78% 29.98 in 10.0 mi Calm Calm - N/A   Clear
8:54 PM 69.8 °F - 66.2 °F 88% 29.98 in 10.0 mi Calm Calm - N/A   Clear
9:14 PM 69.8 °F - 64.4 °F 83% 29.98 in 10.0 mi Calm Calm - N/A   Clear
9:34 PM 66.2 °F - 64.4 °F 94% 29.99 in 10.0 mi Calm Calm - N/A   Clear
9:54 PM 66.2 °F - 64.4 °F 94% 29.99 in 7.0 mi Calm Calm - N/A   Clear
10:14 PM 66.2 °F - 64.4 °F 94% 29.99 in 10.0 mi Calm Calm - N/A   Clear
10:34 PM 66.2 °F - 64.4 °F 94% 29.99 in 3.0 mi Calm Calm - N/A   Clear
11:34 PM 64.4 °F - 62.6 °F 94% 29.98 in 10.0 mi Calm Calm - N/A   Clear
11:54 PM 68.0 °F - 62.6 °F 83% 29.98 in 10.0 mi South 3.5 mph - N/A   Clear